[[{"header":{"parameterUnit":"m.s-1","parameterCategory":1,"la1":30.2991,"la2":30.254,"lo1":-89.0895,"lo2":-89.0444,"dy":0.0017,"dx":0.0017,"nx":28,"ny":28,"refTime":"2024-06-01T09:00:00:Z","depth":0,"parameterNumber":2,"parameterNumberName":"U-component_of_WINDS"},"data":[0,0,0,0,0,0,0,0,0,0,0,0,0,0,0,0,0,0,0,0,0,0,0,0,0,0,0,0,0,0,0,0,0,0,0,0,0,0,0,0,0,0,0,0,0,0,0,0,0,0,0,0,0,0,0,0,0,0,0.7239,0.724,0,0.7289,0.7289,0.729,0.7288,0.7287,0.7286,0.7286,0.7336,0.7338,0.734,0,0,0,0,0,0,0,0,0,0,0,0,0,0.7143,0.7145,0.7239,0.724,0.724,0.7288,0.7289,0.729,0.7288,0.7287,0.7286,0.7286,0.7336,0.7338,0.7341,0,0,0,0,0,0,0,0,0,0,0,0,0,0.7188,0.7145,0.7239,0.7245,0.7246,0.7288,0.7289,0.729,0.7288,0.7287,0.7286,0.7285,0.7335,0.7338,0.7341,0.738,0,0,0.735,0.7351,0,0,0,0,0,0,0,0,0.7185,0.7191,0.7244,0.7245,0.7246,0.7281,0.7274,0.732,0.7288,0.7272,0.7286,0.7285,0.7319,0.7323,0.7335,0.7382,0.7384,0.735,0.7352,0.7353,0.7354,0,0,0,0,0,0,0,0.7182,0.7189,0.7259,0.7244,0.7246,0.7245,0.7251,0.7283,0.7301,0.7274,0.7274,0.7279,0.7319,0.7332,0.7336,0.7385,0.735,0.7353,0.7355,0.7356,0.7466,0.7467,0,0,0,0,0,0,0.7178,0.7187,0.7257,0.726,0.7213,0.7248,0.7254,0.7271,0.73,0.7304,0.728,0.7279,0.7327,0.7332,0.7338,0.7384,0.7353,0.7356,0.7358,0.7465,0.7467,0.7468,0,0,0,0,0,0,0.7176,0.7184,0.7255,0.7223,0.7232,0.7251,0.727,0.7272,0.7285,0.7305,0.7309,0.729,0.7327,0.7333,0.7369,0.7386,0.7357,0.736,0.7464,0.7466,0.7467,0.7478,0,0,0,0,0,0,0.7173,0.7183,0.7198,0.7224,0.7234,0.7286,0.7271,0.7274,0.729,0.7289,0.7315,0.7318,0.7326,0.7365,0.7372,0.739,0.7362,0.7462,0.7465,0.7467,0.7476,0.748,0.7483,0,0,0,0,0,0.7169,0.72,0.7199,0.7208,0.7253,0.7287,0.7293,0.7301,0.7291,0.7306,0.732,0.7318,0.7383,0.7368,0.7377,0.7395,0.7461,0.7464,0.7466,0.7475,0.7479,0.7483,0,0,0,0,0,0,0.7176,0.7203,0.7203,0.7242,0.7262,0.7287,0.7306,0.7306,0.7329,0.7327,0.7337,0.7343,0.7378,0.7391,0.7374,0.7434,0.7421,0.7425,0.7425,0.7429,0.7432,0.7428,0.7365,0,0,0,0,0,0.7182,0.7207,0.723,0.7262,0.7272,0.7287,0.7302,0.7307,0.7328,0.7337,0.7352,0.7373,0.7398,0.7414,0.7439,0.7479,0.7484,0.7496,0.7499,0.7502,0.7505,0.7526,0.7531,0.7476,0.7476,0.7476,0,0,0.7195,0.7213,0.7228,0.7264,0.728,0.7305,0.7295,0.7322,0.7341,0.7341,0.7375,0.7388,0.7411,0.7449,0.7466,0.746,0.7521,0.7505,0.7507,0.7509,0.7529,0.7534,0.7539,0.7478,0.7478,0.7477,0,0,0.7231,0.7247,0.7276,0.7292,0.7316,0.7326,0.7333,0.7357,0.7365,0.74,0.74,0.7423,0.7466,0.7483,0.7497,0.7538,0.7537,0.7546,0.7564,0.7584,0.7588,0.7592,0.7606,0.7611,0.755,0.755,0.755,0,0.7243,0.7282,0.7291,0.7318,0.7333,0.7334,0.7363,0.7378,0.7409,0.742,0.7413,0.7467,0.7483,0.7524,0.7534,0.7546,0.7553,0.7543,0.7587,0.7591,0.7595,0.7608,0.7613,0.7551,0.755,0.755,0.755,0,0.7295,0.7322,0.7342,0.7372,0.7389,0.7417,0.743,0.7447,0.745,0.7461,0.7496,0.7515,0.7543,0.7553,0.7557,0.7595,0.759,0.7585,0.7572,0.7601,0.7613,0.7618,0.7552,0.7551,0.7551,0.7551,0,0,0.7336,0.737,0.7377,0.739,0.7417,0.7438,0.7465,0.7492,0.7506,0.7528,0.7551,0.7587,0.7583,0.7599,0.7604,0.7622,0.7653,0.7615,0.7616,0.762,0.7694,0.7697,0.7703,0.7652,0.7654,0.7654,0.7692,0,0.7374,0.7423,0.7432,0.7474,0.7498,0.75,0.7524,0.7543,0.7553,0.7575,0.7587,0.7612,0.7605,0.7614,0.7632,0.7645,0.7667,0.7643,0.7673,0.7674,0.7666,0.7709,0.7712,0.7747,0.7697,0.7698,0.7698,0,0.7424,0.7447,0.7491,0.7514,0.7525,0.7546,0.7571,0.7592,0.7614,0.762,0.7638,0.7641,0.767,0.7656,0.7695,0.7678,0.7691,0.7699,0.7701,0.7703,0.7687,0.7712,0.7758,0.7763,0.7706,0.7706,0.7705,0,0.7448,0.7489,0.7521,0.7533,0.756,0.7575,0.7587,0.7608,0.7623,0.7645,0.7655,0.7681,0.7694,0.7714,0.7724,0.7713,0.7762,0.7749,0.7767,0.7767,0.7776,0.7775,0.7824,0.7787,0.7787,0.7787,0.7787,0,0.7488,0.7515,0.7532,0.7551,0.7582,0.7591,0.7621,0.7633,0.7651,0.7673,0.7676,0.7696,0.7709,0.7731,0.7739,0.777,0.7776,0.7782,0.7784,0.7781,0.778,0.7789,0.7786,0.7788,0.7788,0.7788,0.7787,0,0.7519,0.7532,0.7566,0.759,0.7596,0.7617,0.7637,0.7656,0.7667,0.7694,0.7701,0.7718,0.7744,0.7756,0.7789,0.7794,0.7828,0.7829,0.7821,0.7821,0.7838,0.7836,0.7893,0.7901,0.786,0.786,0.786,0,0.7544,0.7564,0.759,0.7604,0.7617,0.7641,0.7656,0.7667,0.7683,0.7708,0.7724,0.775,0.7771,0.7813,0.7828,0.7853,0.7853,0.7872,0.7857,0.7853,0.7852,0.785,0.7852,0.7874,0.7875,0.7875,0.7875,0,0.7585,0.759,0.7612,0.7636,0.7655,0.7675,0.7694,0.7706,0.7719,0.7737,0.7764,0.778,0.7813,0.7839,0.7865,0.7877,0.7878,0.788,0.7885,0.7882,0.7876,0.7878,0.7827,0.7878,0.7878,0.7878,0.7877,0.7877,0.7613,0.7631,0.7651,0.7675,0.7691,0.7709,0.7727,0.774,0.7763,0.779,0.7795,0.7823,0.7843,0.7878,0.7891,0.7913,0.7909,0.7917,0.7919,0.792,0.7921,0.7873,0.7918,0.7918,0.7918,0.7918,0.7918,0,0.7653,0.7666,0.7688,0.7715,0.7734,0.7734,0.7755,0.7771,0.7795,0.7815,0.7835,0.7865,0.789,0.7907,0.7933,0.7947,0.7948,0.7953,0.7951,0.7954,0.7924,0.7916,0.7952,0.7952,0.7952,0.7952,0.7952,0.7952,0.7676,0.7706,0.7713,0.7751,0.7764,0.7791,0.7803,0.782,0.7835,0.7868,0.7889,0.79,0.7918,0.7944,0.7967,0.7971,0.798,0.7985,0.7989,0.796,0.7956,0.7953,0.7946,0.7987,0.7987,0.8018,0.8018,0.8018]},{"header":{"parameterUnit":"m.s-1","parameterCategory":1,"la1":30.2991,"la2":30.254,"lo1":-89.0895,"lo2":-89.0444,"dy":0.0017,"dx":0.0017,"nx":28,"ny":28,"refTime":"2024-06-01T09:00:00:Z","depth":0,"parameterNumber":3,"parameterNumberName":"V-component_of_WINDS"},"data":[0,0,0,0,0,0,0,0,0,0,0,0,0,0,0,0,0,0,0,0,0,0,0,0,0,0,0,0,0,0,0,0,0,0,0,0,0,0,0,0,0,0,0,0,0,0,0,0,0,0,0,0,0,0,0,0,0,0,3.6874,3.6875,0,3.693,3.6931,3.6932,3.6874,3.6872,3.6869,3.6867,3.692,3.6923,3.6926,0,0,0,0,0,0,0,0,0,0,0,0,0,3.671,3.6714,3.6874,3.6875,3.6876,3.693,3.6931,3.6932,3.6874,3.6872,3.6869,3.6866,3.6919,3.6923,3.6927,0,0,0,0,0,0,0,0,0,0,0,0,0,3.6776,3.6715,3.6874,3.6854,3.6852,3.693,3.6931,3.6932,3.6875,3.6871,3.6868,3.6865,3.6917,3.6922,3.6927,3.7026,0,0,3.6943,3.6946,0,0,0,0,0,0,0,0,3.6772,3.6782,3.6856,3.6855,3.6854,3.6892,3.6892,3.6963,3.6876,3.6866,3.6867,3.6863,3.6913,3.6918,3.6936,3.7029,3.7031,3.6944,3.6947,3.6949,3.6951,0,0,0,0,0,0,0,3.6767,3.6779,3.6896,3.6857,3.6856,3.6839,3.6845,3.6906,3.6907,3.6867,3.6863,3.687,3.6911,3.6931,3.6937,3.7032,3.6944,3.6948,3.6951,3.6953,3.7207,3.721,0,0,0,0,0,0,3.6766,3.6775,3.6894,3.6898,3.6804,3.6845,3.6851,3.6883,3.6907,3.6907,3.6873,3.6868,3.6924,3.6931,3.6938,3.7055,3.6949,3.6954,3.6957,3.7203,3.7208,3.7212,0,0,0,0,0,0,3.6763,3.6777,3.6892,3.6836,3.6849,3.6852,3.6887,3.6886,3.6905,3.6912,3.6911,3.6893,3.6921,3.6931,3.7005,3.7056,3.6956,3.6961,3.7199,3.7205,3.721,3.7289,0,0,0,0,0,0,3.6758,3.6776,3.6816,3.6837,3.6852,3.696,3.6891,3.6889,3.6915,3.6908,3.693,3.6931,3.6919,3.6997,3.701,3.7061,3.6965,3.7195,3.7202,3.7208,3.7282,3.7296,3.7309,0,0,0,0,0,3.6753,3.6835,3.6818,3.6833,3.6902,3.6963,3.6971,3.6959,3.6919,3.6958,3.6961,3.693,3.7048,3.7006,3.7019,3.7072,3.7191,3.72,3.7207,3.7276,3.7294,3.7309,0,0,0,0,0,0,3.6818,3.6837,3.6819,3.6911,3.6936,3.6953,3.7001,3.6978,3.7013,3.7005,3.6986,3.6991,3.707,3.7078,3.7031,3.7169,3.7113,3.7124,3.716,3.7177,3.719,3.7186,3.6969,0,0,0,0,0,3.6843,3.6894,3.6907,3.6987,3.7,3.6999,3.7025,3.7013,3.7037,3.7047,3.7056,3.708,3.7122,3.715,3.7189,3.7283,3.7286,3.7326,3.734,3.7351,3.736,3.7409,3.7426,3.7238,3.7238,3.7238,0,0,3.6896,3.6912,3.6945,3.7,3.7018,3.7068,3.7008,3.7064,3.71,3.7055,3.7126,3.7133,3.7158,3.7242,3.7279,3.7251,3.7413,3.7361,3.737,3.7373,3.7419,3.7437,3.7452,3.7244,3.7243,3.7242,0,0,3.7016,3.7035,3.7103,3.7123,3.7151,3.7149,3.7166,3.7187,3.719,3.7261,3.7228,3.727,3.7344,3.7362,3.7381,3.7508,3.748,3.7521,3.7592,3.7639,3.7654,3.7667,3.7711,3.7727,3.7531,3.7531,3.7531,0,3.7077,3.7154,3.714,3.7199,3.7223,3.7186,3.7253,3.7272,3.7311,3.7328,3.7297,3.7388,3.7402,3.7489,3.752,3.7537,3.7553,3.7518,3.7653,3.7666,3.7678,3.7719,3.7736,3.7536,3.7535,3.7535,3.7534,0,3.7226,3.728,3.7331,3.7371,3.7401,3.7464,3.7458,3.7489,3.7474,3.7475,3.7547,3.7562,3.7604,3.7623,3.7609,3.7708,3.769,3.7656,3.76,3.7701,3.7739,3.7755,3.7543,3.7541,3.754,3.7538,0,0,3.739,3.7422,3.7441,3.7458,3.7487,3.7526,3.7586,3.7628,3.7655,3.7683,3.7731,3.7794,3.7763,3.7785,3.7772,3.7814,3.7911,3.7775,3.7775,3.7798,3.8019,3.8044,3.8063,3.7893,3.7896,3.7898,3.8017,0,3.7511,3.7617,3.7606,3.7706,3.7753,3.7718,3.777,3.7792,3.7794,3.7833,3.7835,3.7879,3.7836,3.7849,3.7888,3.7891,3.7955,3.7882,3.7936,3.7938,3.793,3.8083,3.8109,3.822,3.8032,3.8035,3.8036,0,3.7666,3.7701,3.7806,3.7826,3.7846,3.7893,3.7929,3.7968,3.7991,3.7989,3.8014,3.7993,3.8051,3.7994,3.8072,3.8023,3.8044,3.8049,3.8052,3.8056,3.7993,3.809,3.8256,3.8272,3.806,3.8058,3.8057,0,3.7773,3.7846,3.7918,3.7934,3.796,3.7993,3.8005,3.8025,3.805,3.8082,3.8098,3.8135,3.8155,3.8184,3.8173,3.8133,3.8253,3.8195,3.8251,3.8252,3.8277,3.8276,3.8448,3.8293,3.8293,3.8292,3.8292,0,3.7908,3.7974,3.7967,3.8011,3.8082,3.8068,3.8138,3.8145,3.8164,3.8207,3.8178,3.8219,3.8203,3.8242,3.8234,3.8299,3.8308,3.8307,3.8304,3.831,3.831,3.8322,3.8314,3.8297,3.8296,3.8295,3.8294,0,3.804,3.8038,3.8114,3.8132,3.8138,3.819,3.8204,3.8245,3.8245,3.83,3.8311,3.8311,3.8355,3.8348,3.8397,3.8391,3.8472,3.846,3.8465,3.8462,3.8518,3.8512,3.8704,3.8727,3.8558,3.856,3.8561,0,3.8126,3.8176,3.8199,3.8227,3.8242,3.8287,3.8313,3.83,3.8328,3.8358,3.8394,3.8437,3.847,3.8542,3.8545,3.8582,3.857,3.8634,3.8575,3.8578,3.8569,3.8566,3.857,3.8645,3.8647,3.8649,3.865,0,3.8279,3.8275,3.8315,3.8355,3.8387,3.8417,3.8443,3.8467,3.8456,3.8489,3.8535,3.8561,3.8611,3.8653,3.8687,3.8697,3.8672,3.8669,3.8684,3.8689,3.869,3.8689,3.8496,3.8664,3.8663,3.8662,3.8661,3.8661,3.8389,3.8431,3.8455,3.8499,3.8518,3.8544,3.8583,3.8588,3.8627,3.8668,3.8657,3.8709,3.8729,3.8773,3.8786,3.8825,3.8801,3.8823,3.8828,3.8833,3.884,3.8684,3.8831,3.8831,3.8831,3.883,3.883,0,3.854,3.8553,3.8594,3.8633,3.8668,3.8643,3.867,3.87,3.8747,3.8769,3.8802,3.8854,3.8894,3.89,3.8938,3.8968,3.8957,3.8978,3.8975,3.8977,3.886,3.8843,3.8986,3.8986,3.8986,3.8986,3.8986,3.8986,3.8622,3.8691,3.869,3.8768,3.878,3.8832,3.885,3.8872,3.8889,3.895,3.8983,3.8987,3.9002,3.904,3.9075,3.9076,3.909,3.9116,3.9112,3.9001,3.8986,3.8971,3.8955,3.9119,3.912,3.9226,3.9227,3.9228]}]]